Ostrava, Czech Republic

2:02 AM CET on February 11, 2016 (GMT +0100)
Mosnov

Weather History for LKMT - February, 2013

Change the Weather History Date:

Wednesday, February 27, 2013

  Actual Average (EPKT) Record (EPKT)
Temperature  
Mean Temperature 36 °F -  
Max Temperature 41 °F 45 °F 53 °F (1999)
Min Temperature 32 °F 30 °F 6 °F (2005)
Degree Days  
Heating Degree Days 28    
Moisture  
Dew Point 33 °F    
Average Humidity 92    
Maximum Humidity 100    
Minimum Humidity 65    
Precipitation  
Precipitation 0.00 in 0.04 in - ()
Sea Level Pressure  
Sea Level Pressure 30.32 in    
Wind  
Wind Speed 12 mph ()    
Max Wind Speed 21 mph    
Max Gust Speed -    
Visibility 1.7 miles    
Events Fog , Rain    
Averages and records for this station are not official NWS values.
T = Trace of Precipitation, MM = Missing Value Source: Averaged Metar Reports

Daily Weather History Graph

Daily Weather History Graph

Search for Another Location

Airport or City:

Trip Planner

Search our weather history database for the weather conditions in past years. The results will help you decide how hot, cold, wet, or windy it might be!

Date:

Astronomy

Feb. 27, 2013 Rise Set
Actual Time 6:34 AM CET 5:26 PM CET
Civil Twilight 6:02 AM CET 5:59 PM CET
Nautical Twilight 5:25 AM CET 6:36 PM CET
Astronomical Twilight 4:47 AM CET 7:13 PM CET
Moon 7:45 PM CET (2/27) 6:46 AM CET (2/27)
Length of Visible Light 11h 57m
Length of Day
10h 52m
Full, 97% of the Moon is Illuminated
Feb 27
Full
Mar 4
Last Quarter
Mar 11
New
Mar 19
First Quarter
Mar 27
Full

Hourly Weather History & Observations

Time (CET) Temp. Windchill Dew Point Humidity Pressure Visibility Wind Dir Wind Speed Gust Speed Precip Events Conditions
12:00 AM 33.8 °F 23.5 °F 32.0 °F 93% 30.30 in 1.1 mi NNE 16.1 mph - N/A   Light Drizzle
12:20 AM 33.8 °F 24.3 °F 32.0 °F 93% 30.30 in 0.8 mi NNE 13.8 mph - N/A   Mostly Cloudy
12:30 AM 33.8 °F 23.9 °F 32.0 °F 93% 30.30 in 0.8 mi NNE 15.0 mph - N/A Rain Light Rain
1:00 AM 34 °F - 33 °F 95% 30.35 in 1 mi NNE 13.4 mph - - Rain Light Rain
1:00 AM 33.8 °F 23.9 °F 33.8 °F 100% 30.30 in 0.7 mi NNE 15.0 mph - N/A   Overcast
1:30 AM 33.8 °F 24.3 °F 33.8 °F 100% 30.30 in 0.7 mi NNE 13.8 mph - N/A   Light Drizzle
2:00 AM 33.8 °F 23.9 °F 33.8 °F 100% 30.30 in 0.6 mi NNE 15.0 mph - N/A   Light Drizzle
2:10 AM 33.8 °F 24.3 °F 33.8 °F 100% 30.30 in 0.6 mi NNE 13.8 mph - N/A Fog Drizzle
2:30 AM 33.8 °F 24.8 °F 33.8 °F 100% 30.30 in 0.5 mi NNE 12.7 mph - N/A Fog , Rain Light Rain
3:00 AM 33.8 °F 24.8 °F 33.8 °F 100% 30.30 in 0.7 mi NNE 12.7 mph - N/A Rain Light Rain
3:06 AM 33.8 °F 24.8 °F 33.8 °F 100% 30.30 in 0.8 mi NNE 12.7 mph - N/A Rain Light Rain
3:30 AM 33.8 °F 25.3 °F 33.8 °F 100% 30.30 in 0.9 mi NNE 11.5 mph - N/A Rain Light Rain
4:00 AM 33.8 °F 24.8 °F 33.8 °F 100% 30.30 in 1.1 mi NNE 12.7 mph - N/A   Light Drizzle
4:30 AM 33.8 °F 24.8 °F 33.8 °F 100% 30.30 in 1.2 mi NNE 12.7 mph - N/A   Light Drizzle
5:00 AM 33.8 °F 25.3 °F 33.8 °F 100% 30.30 in 1.6 mi NNE 11.5 mph - N/A   Light Drizzle
5:30 AM 33.8 °F 24.8 °F 33.8 °F 100% 30.30 in 1.7 mi NNE 12.7 mph - N/A   Overcast
6:00 AM 33.8 °F 24.3 °F 33.8 °F 100% 30.30 in 1.7 mi NNE 13.8 mph - N/A   Overcast
6:30 AM 33.8 °F 24.8 °F 33.8 °F 100% 30.30 in 1.2 mi NNE 12.7 mph - N/A   Mostly Cloudy
7:00 AM 34 °F - 33 °F 96% 30.35 in 1 mi NNE 11.2 mph - - Rain Light Drizzle
7:00 AM 33.8 °F 25.3 °F 33.8 °F 100% 30.30 in 0.9 mi NNE 11.5 mph - N/A   Light Drizzle
7:30 AM 33.8 °F 25.8 °F 33.8 °F 100% 30.30 in 1.1 mi NNE 10.4 mph - N/A   Mostly Cloudy
8:00 AM 33.8 °F 24.3 °F 33.8 °F 100% 30.30 in 1.0 mi NNE 13.8 mph - N/A   Overcast
8:30 AM 33.8 °F 24.3 °F 33.8 °F 100% 30.30 in 1.4 mi NNE 13.8 mph - N/A   Overcast
9:00 AM 35.6 °F 26.2 °F 33.8 °F 93% 30.30 in 1.4 mi NNE 15.0 mph - N/A   Overcast
9:30 AM 35.6 °F 26.2 °F 33.8 °F 93% 30.33 in 1.4 mi NNE 15.0 mph - N/A   Overcast
10:00 AM 35.6 °F 26.2 °F 33.8 °F 93% 30.33 in 1.2 mi NNE 15.0 mph - N/A   Overcast
10:30 AM 35.6 °F 26.6 °F 33.8 °F 93% 30.33 in 1.2 mi NNE 13.8 mph - N/A   Overcast
11:00 AM 35.6 °F 27.5 °F 33.8 °F 93% 30.33 in 1.2 mi NNE 11.5 mph - N/A   Overcast
11:30 AM 35.6 °F 26.2 °F 33.8 °F 93% 30.33 in 1.6 mi NNE 15.0 mph - N/A   Mostly Cloudy
12:00 PM 37.4 °F 29.3 °F 35.6 °F 93% 30.33 in 2.2 mi NNE 12.7 mph - N/A   Mostly Cloudy
12:30 PM 39.2 °F 30.5 °F 35.6 °F 87% 30.33 in 2.2 mi NNE 16.1 mph - N/A   Mostly Cloudy
1:00 PM 40 °F - 35 °F 75% 30.35 in 2 mi NNE 17.9 mph - -   Mist
1:00 PM 41.0 °F 32.5 °F 35.6 °F 81% 30.30 in 2.5 mi NNE 17.3 mph - N/A   Mostly Cloudy
1:30 PM 41.0 °F 32.5 °F 35.6 °F 81% 30.30 in 2.8 mi NE 17.3 mph - N/A   Mostly Cloudy
2:00 PM 41.0 °F 32.2 °F 33.8 °F 76% 30.30 in 3.1 mi NE 18.4 mph - N/A   Mostly Cloudy
2:30 PM 41.0 °F 31.6 °F 32.0 °F 70% 30.30 in 3.7 mi NE 20.7 mph - N/A   Mostly Cloudy
3:00 PM 41.0 °F 31.9 °F 30.2 °F 65% 30.30 in 4.3 mi ENE 19.6 mph - N/A   Mostly Cloudy
3:18 PM 41.0 °F 32.8 °F 32.0 °F 70% 30.33 in 2.5 mi NE 16.1 mph - N/A   Mostly Cloudy
3:30 PM 39.2 °F 31.2 °F 33.8 °F 81% 30.33 in 2.2 mi NNE 13.8 mph - N/A   Mostly Cloudy
4:00 PM 37.4 °F 29.8 °F 33.8 °F 87% 30.30 in 2.2 mi North 11.5 mph - N/A   Mostly Cloudy
4:30 PM 37.4 °F 29.8 °F 33.8 °F 87% 30.33 in 2.2 mi North 11.5 mph - N/A   Mostly Cloudy
5:00 PM 37.4 °F 30.3 °F 33.8 °F 87% 30.33 in 2.2 mi North 10.4 mph - N/A   Mostly Cloudy
5:30 PM 37.4 °F 29.8 °F 33.8 °F 87% 30.33 in 2.2 mi North 11.5 mph - N/A   Mostly Cloudy
6:00 PM 35.6 °F 29.2 °F 33.8 °F 93% 30.33 in 2.2 mi North 8.1 mph - N/A   Mostly Cloudy
7:00 PM 35 °F - 33 °F 88% 30.40 in 2 mi NNE 8.9 mph - -   Mist
7:00 PM 35.6 °F 28.0 °F 33.8 °F 93% 30.36 in 2.2 mi North 10.4 mph - N/A   Mostly Cloudy
7:30 PM 33.8 °F 26.4 °F 32.0 °F 93% 30.36 in 2.2 mi NNE 9.2 mph - N/A   Mostly Cloudy
8:00 PM 33.8 °F 28.6 °F 32.0 °F 93% 30.36 in 2.2 mi NNE 5.8 mph - N/A   Partly Cloudy
8:30 PM 32.0 °F 26.4 °F 30.2 °F 93% 30.36 in 2.2 mi NNE 5.8 mph - N/A   Partly Cloudy
9:00 PM 32.0 °F 24.8 °F 30.2 °F 93% 30.36 in 2.2 mi NNE 8.1 mph - N/A   Partly Cloudy
9:30 PM 32.0 °F 24.2 °F 30.2 °F 93% 30.36 in 2.2 mi NE 9.2 mph - N/A   Partly Cloudy
10:00 PM 32.0 °F 24.8 °F 30.2 °F 93% 30.36 in 2.2 mi NNE 8.1 mph - N/A   Partly Cloudy
10:30 PM 32.0 °F 25.6 °F 30.2 °F 93% 30.36 in - NNE 6.9 mph - N/A   Partly Cloudy
11:00 PM 32.0 °F 24.8 °F 30.2 °F 93% 30.36 in - NNE 8.1 mph - N/A   Mist
11:30 PM 32.0 °F 25.6 °F 30.2 °F 93% 30.36 in - NNE 6.9 mph - N/A   Mist